Al Hoceima, Morocco

7:12 PM WET on March 25, 2017 (GMT +0000)
Cherif Al Idrissi

Weather History for GMTA - January, 2013

Change the Weather History Date:

Monday, January 7, 2013

  Actual Average Record
Temperature  
Mean Temperature 58 °F -  
Max Temperature 70 °F 59 °F 70 °F (2013)
Min Temperature 47 °F 45 °F 32 °F (1997)
Degree Days  
Heating Degree Days 6    
Growing Degree Days 8 (Base 50)    
Moisture  
Dew Point 44 °F    
Average Humidity 54    
Maximum Humidity 71    
Minimum Humidity 32    
Precipitation  
Precipitation 0.00 in - - ()
Sea Level Pressure  
Sea Level Pressure 30.34 in    
Wind  
Wind Speed 6 mph ()    
Max Wind Speed 9 mph    
Max Gust Speed -    
Visibility 9.0 miles    
Events      
Averages and records for this station are not official NWS values.
T = Trace of Precipitation, MM = Missing Value Source: Averaged Metar Reports

Daily Weather History Graph

Daily Weather History Graph

Search for Another Location

Airport or City:

Trip Planner

Search our weather history database for the weather conditions in past years. The results will help you decide how hot, cold, wet, or windy it might be!

Date:

Astronomy

Jan. 07, 2013 Rise Set
Actual Time 7:24 AM WET 5:19 PM WET
Civil Twilight 6:56 AM WET 5:47 PM WET
Nautical Twilight 6:25 AM WET 6:18 PM WET
Astronomical Twilight 5:54 AM WET 6:49 PM WET
Moon 2:34 AM WET (1/7) 1:16 PM WET (1/7)
Length of Visible Light 10h 50m
Length of Day
9h 54m
Waning Crescent, 25% of the Moon is Illuminated
Jan 7
Waning Crescent
Jan 11
New
Jan 18
First Quarter
Jan 27
Full
Feb 3
Last Quarter

Hourly Weather History & Observations

Time (WET) Temp. Dew Point Humidity Pressure Visibility Wind Dir Wind Speed Gust Speed Precip Events Conditions
6:00 AM 51 °F 40 °F 56% 30.36 in 9 mi SSW 6.9 mph - -  
6:00 AM 51.8 °F 39.2 °F 62% 30.33 in - SSW 6.9 mph - N/A   Clear
7:00 AM 51.8 °F 39.2 °F 62% 30.36 in - SSW 6.9 mph - N/A   Clear
8:00 AM 51.8 °F 39.2 °F 62% 30.36 in - SSW 6.9 mph - N/A   Clear
9:00 AM 58 °F 42 °F 43% 30.38 in 9 mi SSW 6.9 mph - -  
9:00 AM 57.2 °F 41.0 °F 55% 30.36 in - SSW 6.9 mph - N/A   Clear
10:00 AM 62.6 °F 44.6 °F 52% 30.39 in - South 6.9 mph - N/A   Clear
11:00 AM 68.0 °F 46.4 °F 46% 30.36 in - South 6.9 mph - N/A   Clear
12:00 PM 68 °F 48 °F 37% 30.36 in 9 mi NW 9.2 mph - -  
12:00 PM 68.0 °F 48.2 °F 49% 30.33 in - NW 9.2 mph - N/A   Clear
1:00 PM 69.8 °F 46.4 °F 43% 30.33 in - WNW 9.2 mph - N/A   Clear
2:00 PM 69.8 °F 46.4 °F 43% 30.30 in - NW 9.2 mph - N/A   Clear
3:00 PM 69 °F 46 °F 32% 30.32 in 9 mi NW 9.2 mph - -  
3:00 PM 68.0 °F 46.4 °F 46% 30.30 in - NW 9.2 mph - N/A   Clear
4:00 PM 68.0 °F 46.4 °F 46% 30.30 in - NW 6.9 mph - N/A   Clear
5:00 PM 62.6 °F 46.4 °F 55% 30.30 in - NW 4.6 mph - N/A   Clear
6:00 PM 57 °F 46 °F 56% 30.34 in 9 mi SE 2.3 mph - -  
6:00 PM 57.2 °F 46.4 °F 67% 30.33 in - SE 2.3 mph - N/A   Clear
7:00 PM 55.4 °F 44.6 °F 67% 30.36 in - West 2.3 mph - N/A   Clear
8:00 PM 51.8 °F 41.0 °F 67% 30.36 in - SSW 4.6 mph - N/A   Clear
9:00 PM 52 °F 43 °F 62% 30.38 in 9 mi SSW 2.3 mph - -  
9:00 PM 51.8 °F 42.8 °F 71% 30.36 in - SSW 2.3 mph - N/A   Clear